Weather reports worldwide

Advertisment
Deelen, Netherlands (6275): temperature & dewpoint: 16.02.2020 08:00:00 - 22.02.2020 08:00:00 (CET)Deelen, Netherlands (6275): temperature 5cm: 16.02.2020 08:00:00 - 22.02.2020 08:00:00 (CET)Deelen, Netherlands (6275): wind speed & gusts: 16.02.2020 08:00:00 - 22.02.2020 08:00:00 (CET)Deelen, Netherlands (6275): wind direction: 16.02.2020 08:00:00 - 22.02.2020 08:00:00 (CET)Deelen, Netherlands (6275): reduced air pressure: 16.02.2020 08:00:00 - 22.02.2020 08:00:00 (CET)Deelen, Netherlands (6275): visibility: 16.02.2020 08:00:00 - 22.02.2020 08:00:00 (CET)Deelen, Netherlands (6275): precipitation: 16.02.2020 08:00:00 - 22.02.2020 08:00:00 (CET)
Date & Time tt [°C] td [°C] tt 5cm [°C] ff [km/h] ff [kn] fx [km/h] fx [kn] dd ppp [hPa] vv [km] rr [mm]
22.02.2020 08:00:00 - - - - - - - - - - -
22.02.2020 07:00:00 7,0 2,3 6,5 37 20 58 31 SSW 1015,6 10 0,0
22.02.2020 06:00:00 6,7 3,1 6,0 31 17 47 25 SSW 1016,4 10 0,0
22.02.2020 05:00:00 6,8 3,6 6,3 29 16 47 25 SSW 1017,3 10 0,0
22.02.2020 04:00:00 7,4 3,7 7,0 29 16 54 29 SSW 1018,3 10 0,0
22.02.2020 03:00:00 7,6 3,8 7,3 29 16 50 27 SSW 1018,8 10 0,0
22.02.2020 02:00:00 7,9 3,7 7,6 29 16 50 27 SW 1020,0 10 0,0
22.02.2020 01:00:00 8,1 3,7 7,6 29 16 43 23 SSW 1020,9 10 0,0
22.02.2020 00:00:00 7,8 3,9 7,5 29 16 47 25 SSW 1020,7 10 0,0
21.02.2020 23:00:00 8,0 3,7 7,6 28 15 47 25 SSW 1021,4 10 0,0
21.02.2020 22:00:00 8,0 3,7 7,6 28 15 43 23 SW 1021,9 10 0,0
21.02.2020 21:00:00 8,1 3,5 7,7 29 16 50 27 SSW 1022,1 10 0,0
21.02.2020 20:00:00 8,1 3,6 7,6 28 15 47 25 SW 1022,5 10 0,0
21.02.2020 19:00:00 8,2 4,0 7,7 28 15 43 23 SW 1023,0 10 0,0
21.02.2020 18:00:00 7,9 4,2 7,5 24 13 47 25 SW 1023,1 10 0,0
21.02.2020 17:00:00 7,8 4,0 7,5 28 15 43 23 SW 1023,2 10 0,0
21.02.2020 16:00:00 7,9 3,7 7,8 28 15 47 25 SW 1023,4 10 0,0
21.02.2020 15:00:00 8,1 3,5 7,9 31 17 47 25 SW 1023,6 10 0,0
21.02.2020 14:00:00 7,8 3,4 7,8 26 14 43 23 WSW 1023,9 10 0,0
21.02.2020 13:00:00 7,6 3,5 7,8 26 14 47 25 SW 1024,2 10 0,0
21.02.2020 12:00:00 7,8 3,7 8,1 29 16 43 23 SW 1024,2 10 0,0
21.02.2020 11:00:00 6,4 3,2 7,0 26 14 36 19 SW 1024,4 10 0,0
21.02.2020 10:00:00 5,4 3,1 5,5 24 13 32 18 SW 1023,9 10 0,0
21.02.2020 09:00:00 4,3 2,3 3,8 21 11 32 18 SSW 1023,5 10 0,0
21.02.2020 08:00:00 3,4 1,7 2,5 22 12 32 18 SW 1022,7 10 0,0
21.02.2020 07:00:00 3,1 1,3 2,0 15 8 25 14 SSW 1022,2 10 0,0
21.02.2020 06:00:00 3,0 0,7 2,1 16 9 25 14 SW 1021,6 10 0,0
21.02.2020 05:00:00 3,4 0,7 2,5 16 9 25 14 WSW 1020,9 10 0,0
21.02.2020 04:00:00 3,4 0,4 2,6 18 10 29 16 WSW 1020,0 10 0,0
21.02.2020 03:00:00 3,8 0,2 2,8 15 8 29 16 WSW 1019,2 10 0,0
21.02.2020 02:00:00 4,6 0,4 3,7 21 11 36 19 W 1018,3 10 0,0
21.02.2020 01:00:00 4,6 0,7 3,5 18 10 32 18 W 1017,0 10 0,0
21.02.2020 00:00:00 4,5 1,7 3,4 18 10 32 18 W 1015,5 10 0,0
20.02.2020 23:00:00 4,5 1,9 3,9 18 10 54 29 W 1014,0 10 0,2
20.02.2020 22:00:00 5,3 4,1 4,8 22 12 43 23 W 1011,7 10 0,2
20.02.2020 21:00:00 5,7 4,2 5,4 22 12 47 25 W 1009,8 10 0,5
20.02.2020 20:00:00 6,1 4,5 5,8 37 20 65 35 WNW 1008,5 8 1,9
20.02.2020 19:00:00 8,6 6,9 8,1 31 17 58 31 SSW 1006,5 10 1,0
20.02.2020 18:00:00 9,3 5,5 8,6 34 18 50 27 S 1006,6 10 0,1
20.02.2020 17:00:00 9,6 4,9 9,2 31 17 58 31 S 1007,7 10 0,0
20.02.2020 16:00:00 9,8 5,0 9,6 34 18 47 25 S 1008,7 10 0,0
20.02.2020 15:00:00 10,1 5,4 10,2 35 19 58 31 SSW 1009,9 10 0,0
20.02.2020 14:00:00 9,2 5,7 9,1 29 16 50 27 SSW 1011,0 10 0,0
20.02.2020 13:00:00 8,9 6,1 8,9 29 16 43 23 SSW 1011,9 10 0,0
20.02.2020 12:00:00 8,3 6,0 8,2 29 16 47 25 SSW 1013,0 10 0,0
20.02.2020 11:00:00 8,6 5,7 8,5 28 15 43 23 SSW 1013,3 10 0,0
20.02.2020 10:00:00 8,3 6,3 7,9 24 13 36 19 SSW 1013,9 10 0,0
20.02.2020 09:00:00 7,6 6,6 7,2 22 12 36 19 SSW 1014,2 10 0,1
20.02.2020 08:00:00 7,6 6,4 7,1 24 13 36 19 SSW 1014,3 10 0,0
20.02.2020 07:00:00 7,6 6,2 7,2 22 12 36 19 SSW 1014,4 10 0,0
20.02.2020 06:00:00 7,5 6,2 7,1 24 13 36 19 SSW 1014,5 10 0,0
20.02.2020 05:00:00 7,3 6,2 6,9 21 11 36 19 SSW 1014,8 10 0,0
20.02.2020 04:00:00 6,9 6,2 6,5 24 13 47 25 SSW 1015,3 10 0,2
20.02.2020 03:00:00 6,5 5,9 6,2 24 13 43 23 SSW 1015,8 10 0,3
20.02.2020 02:00:00 6,2 5,3 5,8 22 12 36 19 SSW 1016,5 10 0,1
20.02.2020 01:00:00 5,7 4,8 5,3 22 12 36 19 SSW 1017,2 10 0,1
20.02.2020 00:00:00 5,3 4,4 5,0 22 12 32 18 SSW 1017,8 10 0,0
19.02.2020 23:00:00 5,0 3,4 4,7 21 11 29 16 SSW 1018,6 10 0,1
19.02.2020 22:00:00 5,4 1,5 4,9 21 11 32 18 SSW 1019,0 10 0,0
19.02.2020 21:00:00 5,6 0,8 4,9 15 8 25 14 SSW 1019,5 10 0,0
19.02.2020 20:00:00 4,5 1,1 3,5 15 8 22 12 SSW 1019,8 10 0,0
19.02.2020 19:00:00 3,8 0,9 2,6 16 9 29 16 SW 1020,1 10 0,0
19.02.2020 18:00:00 5,0 0,9 4,2 18 10 32 18 WSW 1020,2 10 0,0
19.02.2020 17:00:00 5,8 0,7 5,1 16 9 36 19 WSW 1019,9 10 0,0
19.02.2020 16:00:00 6,5 0,1 6,3 16 9 40 21 WSW 1020,0 10 0,0
19.02.2020 15:00:00 6,9 0,3 6,7 24 13 40 21 W 1019,5 10 0,0
19.02.2020 14:00:00 7,6 1,5 7,1 21 11 47 25 W 1019,2 10 0,0
19.02.2020 13:00:00 6,8 1,6 7,4 28 15 50 27 W 1018,7 10 0,0
19.02.2020 12:00:00 6,4 1,6 6,6 26 14 47 25 W 1018,6 10 0,0
19.02.2020 11:00:00 6,1 2,7 5,9 24 13 43 23 W 1017,7 10 0,0
19.02.2020 10:00:00 5,4 2,5 5,2 21 11 36 19 W 1017,0 10 0,0
19.02.2020 09:00:00 4,3 2,7 3,5 15 8 25 14 WSW 1016,1 10 0,0
19.02.2020 08:00:00 3,5 2,1 2,7 18 10 43 23 W 1015,5 10 0,1
19.02.2020 07:00:00 3,9 2,5 3,2 15 8 47 25 W 1014,4 10 0,1
19.02.2020 06:00:00 4,3 2,9 3,6 13 7 25 14 W 1013,4 10 0,0
19.02.2020 05:00:00 4,9 3,3 4,1 16 9 29 16 W 1012,1 10 0,0
19.02.2020 04:00:00 3,5 3,2 2,8 11 6 14 8 SW 1011,7 10 0,0
19.02.2020 03:00:00 3,9 3,5 3,8 5 3 22 12 W 1011,7 10 2,2
19.02.2020 02:00:00 4,8 4,1 4,6 22 12 47 25 SW 1011,6 10 1,6
19.02.2020 01:00:00 5,8 4,5 5,5 35 19 61 33 SW 1012,0 10 1,3
19.02.2020 00:00:00 6,9 4,3 6,3 29 16 50 27 SSW 1012,2 10 0,1
18.02.2020 23:00:00 7,1 4,0 6,5 31 17 50 27 SSW 1013,6 10 0,1
18.02.2020 22:00:00 6,9 4,3 6,3 31 17 43 23 SSW 1014,9 10 0,5
18.02.2020 21:00:00 7,4 3,6 6,8 29 16 47 25 SSW 1015,9 10 0,1
18.02.2020 20:00:00 8,0 3,0 7,3 28 15 47 25 SSW 1016,8 10 0,0
18.02.2020 19:00:00 8,1 3,5 7,5 26 14 40 21 SW 1017,4 10 0,0
18.02.2020 18:00:00 8,1 3,2 7,6 22 12 43 23 SW 1017,8 10 0,0
18.02.2020 17:00:00 8,1 2,5 7,4 29 16 54 29 SW 1018,0 10 0,0
18.02.2020 16:00:00 8,4 2,6 8,0 31 17 54 29 SW 1018,7 10 0,0
18.02.2020 15:00:00 8,1 3,2 7,8 26 14 54 29 WSW 1019,1 10 0,1
18.02.2020 14:00:00 8,2 3,6 8,0 28 15 58 31 WSW 1019,3 10 0,2
18.02.2020 13:00:00 8,1 3,2 7,9 29 16 54 29 SW 1019,5 10 0,0
18.02.2020 12:00:00 7,6 3,3 7,5 39 21 58 31 SW 1020,0 10 0,0
18.02.2020 11:00:00 6,8 3,4 - 34 18 50 27 SW 1019,9 10 0,0
18.02.2020 10:00:00 6,0 3,8 6,0 28 15 40 21 SW 1020,0 10 0,0
18.02.2020 09:00:00 5,3 3,1 4,5 26 14 43 23 SW 1019,8 10 0,0
18.02.2020 08:00:00 4,9 2,9 4,3 24 13 43 23 SW 1019,2 10 0,0
18.02.2020 07:00:00 5,1 2,7 - 26 14 40 21 SW 1018,4 10 0,0
18.02.2020 06:00:00 5,4 2,7 - 24 13 40 21 WSW 1018,0 10 0,0
18.02.2020 05:00:00 5,7 3,5 5,0 26 14 40 21 WSW 1017,4 10 0,1
18.02.2020 04:00:00 6,0 4,2 - 24 13 40 21 WSW 1016,9 10 0,0
18.02.2020 03:00:00 6,7 4,9 6,4 26 14 43 23 SW 1016,3 10 0,0
18.02.2020 02:00:00 6,9 5,6 6,5 26 14 40 21 WSW 1015,8 10 0,3
18.02.2020 01:00:00 7,0 5,6 6,7 24 13 40 21 SW 1015,3 10 0,0
18.02.2020 00:00:00 6,4 5,3 5,9 22 12 32 18 SW 1014,5 10 0,0
17.02.2020 23:00:00 6,5 4,7 6,0 24 13 68 37 SW 1013,8 10 1,2
17.02.2020 22:00:00 7,6 5,5 7,0 28 15 50 27 SW 1013,1 10 0,0
17.02.2020 21:00:00 6,8 5,6 6,4 24 13 40 21 SW 1012,5 10 0,2
17.02.2020 20:00:00 6,5 5,2 6,2 22 12 50 27 SW 1012,5 10 0,3
17.02.2020 19:00:00 6,7 4,4 6,3 34 18 50 27 SW 1012,0 10 0,1
17.02.2020 18:00:00 7,7 3,3 7,3 28 15 47 25 SW 1011,4 10 0,0
17.02.2020 17:00:00 8,2 3,4 7,6 29 16 47 25 SW 1010,7 10 0,0
17.02.2020 16:00:00 8,5 3,3 8,7 31 17 58 31 SW 1010,6 10 0,0
17.02.2020 15:00:00 7,7 3,3 7,2 35 19 54 29 SW 1010,5 10 0,0
17.02.2020 14:00:00 7,0 4,0 6,6 35 19 68 37 SW 1010,6 10 0,5
17.02.2020 13:00:00 9,3 3,2 9,1 35 19 61 33 SW 1010,6 10 0,0
17.02.2020 12:00:00 9,8 3,2 10,2 35 19 58 31 SW 1010,6 10 0,0
17.02.2020 11:00:00 9,3 3,1 9,6 40 21 58 31 SSW 1010,4 17 0,0
17.02.2020 10:00:00 7,7 3,5 7,5 29 16 47 25 SSW 1010,4 17 0,0
17.02.2020 09:00:00 6,7 2,9 5,7 25 14 43 23 SSW 1010,6 15 0,0
17.02.2020 08:00:00 6,2 2,8 5,3 25 14 43 23 SSW 1010,2 14 0,0
17.02.2020 07:00:00 6,3 1,6 5,1 25 14 43 23 SSW 1010,2 13 0,0
17.02.2020 06:00:00 6,3 1,7 5,4 29 16 43 23 SW 1009,9 13 0,0
17.02.2020 05:00:00 6,8 1,7 6,2 32 18 54 29 WSW 1009,2 13 0,0
17.02.2020 04:00:00 7,6 3,0 6,8 29 16 50 27 WSW 1008,4 13 0,0
17.02.2020 03:00:00 8,0 2,8 7,1 36 19 76 41 WSW 1007,1 16 0,0
17.02.2020 02:00:00 8,7 4,0 8,0 36 19 68 37 SW 1005,8 16 0,0
17.02.2020 01:00:00 8,7 5,4 8,1 32 18 50 27 SW 1005,0 35 0,0
17.02.2020 00:00:00 8,4 6,2 8,0 31 17 50 27 SSW 1004,0 10 0,0
16.02.2020 23:00:00 8,4 6,2 7,9 28 15 50 27 SW 1002,7 10 0,0
16.02.2020 22:00:00 8,2 6,3 7,7 29 16 58 31 SW 1002,2 10 0,1
16.02.2020 21:00:00 8,0 6,3 7,5 35 19 58 31 SW 1000,8 10 1,8
16.02.2020 20:00:00 8,1 7,1 7,8 22 12 54 29 WSW 1000,2 7 1,9
16.02.2020 19:00:00 8,8 7,6 8,4 28 15 79 43 W 998,9 10 3,4
16.02.2020 18:00:00 17,0 10,1 16,0 57 31 90 49 SSW 993,4 10 0,0
16.02.2020 17:00:00 16,3 10,3 15,6 48 26 76 41 SSW 994,4 10 0,0
16.02.2020 16:00:00 16,0 10,1 15,3 46 25 79 43 SSW 995,6 10 0,0
16.02.2020 15:00:00 15,6 9,9 14,8 41 22 76 41 SSW 996,7 10 0,0
16.02.2020 14:00:00 15,5 9,7 14,8 39 21 72 39 SSW 997,6 10 0,0
16.02.2020 13:00:00 15,1 9,5 14,5 41 22 68 37 SSW 998,6 10 0,0
16.02.2020 12:00:00 14,4 10,1 13,6 42 23 79 43 SSW 999,6 10 0,4
16.02.2020 11:00:00 14,0 9,6 13,1 46 25 76 41 SSW 999,8 10 0,0
16.02.2020 10:00:00 13,0 10,0 12,1 42 23 68 37 SSW 999,9 10 0,4
16.02.2020 09:00:00 12,3 10,2 11,8 39 21 68 37 SSW 1000,3 10 0,0
16.02.2020 08:00:00 12,1 10,1 11,4 41 22 65 35 SSW 1000,8 10 0,1

tt = temperature
td = dewpoint
tt 5cm = temperature 5cm
ff = wind speed
fx = gusts
dd = wind direction
ppp = reduced air pressure
vv = visibility
rr = precipitation

Next stations